User: anonymous   Login
Location: Boca do Mato
(22.9085°S, 43.2930°W)
Time: 23:16:15
(UTC+00:00)
Language:

MOS 1-B - Orbit

View from above orbital plane
View from above orbital plane
View from above satellite
View from above satellite

Ground track
Ground track

The orbit data is extracted from the following two-line orbital elements,

1 20478U 90013A   20275.43837657 +.00000150 +00000-0 +14492-3 0  9992
2 20478 099.4268 273.7350 0006442 082.9674 277.2219 13.95512547481218
Epoch (UTC): 01 October 2020 10:31:15
Eccentricity: 0.0006442
inclination: 99.4268°
perigee height: 904 km
apogee height: 914 km
right ascension of ascending node: 273.7350°
argument of perigee: 82.9674°
revolutions per day: 13.95512547
mean anomaly at epoch: 277.2219°
orbit number at epoch: 48121

The dashed part of the orbit path shows where the satellite is in the earth's shadow,  

DLR